FALCON 9 R/B (47241 NORAD) Tracking and Keplerian Element Data

This shows tracking and keplerian element data for the satellite.

Feedback or suggestion? Click here.




ElementValue
Catalog47241
NameFALCON 9 R/B
Epoch Orbit126
Epoch Day11.93014711
Epoch Year2021
RAAN154.2585
Inclination27.0149
Eccentricity0.5912695
Argument of Perigee213.9119
Mean Anonmoly88.0761
Mean Motion4.22624794
Decay Rate9.097E-05
L11 47241U 20096B 21011.93014711 .00009097 00000-0 56023-3 0 9990
L22 47241 27.0149 154.2585 5912695 213.9119 88.0761 4.22624794 1265

Live tracking and technical data element details for FALCON 9 R/B (NORAD 47241). FALCON 9 R/B can be tracked NOW for your location showing map with azimuth and elevation plus other details from your city location.

Track the satellite on the map from your city or location and see movement details for azimuth, elevation, latitude, longitude, range, height, and movement on the map or in text.







IsCatalogInMostPopularTable: catalog: 47241, numindb: 28
Update: records affected: 1



GetName: 47241 FALCON 9 R/B

Hit Count: updated at: Mon, 01 Mar 2021 22:25:08 GMT